Skip Page Navigation
NASA JPL Caltech
NASA Logo - Jet Propulsion Laboratory + View the NASA Portal
+ Center for Near-Earth Object Studies
JPL Home Earth Solar System Stars & Galaxies Technology
JPL Solar System Dynamics
BODIES ORBITS EPHEMERIDES TOOLS PHYSICAL DATA DISCOVERY FAQ SITE MAP
IMPORTANT: The SSD Announcement email list is now available. Major changes are coming in the near future, including possible hostname and/or URL changes. To be notified of such changes, subscribe to this email list.

Please visit this page for more details.


JPL Small-Body Database Browser
Search: [ help ]  
71588 (2000 DK68)
Classification: Main-belt Asteroid          SPK-ID: 2071588
Ephemeris | Orbit Diagram | Orbital Elements | Mission Design | Physical Parameters | Discovery Circumstances | Close-Approach Data ]

[ show orbit diagram ]
Orbital Elements at Epoch 2458600.5 (2019-Apr-27.0) TDB
Reference: JPL 24 (heliocentric ecliptic J2000)
 Element Value Uncertainty (1-sigma)   Units 
e .1344174536501236 3.8979e-08  
a 3.109157068012631 2.4733e-08 au
q 2.691232091932089 1.2425e-07 au
i 4.769013989502297 5.2637e-06 deg
node 354.4688603024848 5.1116e-05 deg
peri 100.0562146451823 5.4632e-05 deg
M 230.9260372615164 1.9633e-05 deg
tp 2459318.457213145218
(2021-Apr-13.95721315)
0.00011259 TDB
period 2002.453409259253
5.48
2.3894e-05
6.542e-08
d
yr
n .1797794636995679 2.1452e-09 deg/d
Q 3.527082044093174 2.8058e-08 au
  Orbit Determination Parameters
   # obs. used (total)      822  
   data-arc span      9376 days (25.67 yr)  
   first obs. used      1994-01-15  
   last obs. used      2019-09-17  
   planetary ephem.      DE431  
   SB-pert. ephem.      SB431-N16  
   condition code      0  
   norm. resid. RMS      .53416  
   source      ORB  
   producer      Otto Matic  
   solution date      2019-Sep-24 02:40:23  

Additional Information
 Earth MOID = 1.71327 au 
 Jupiter MOID = 1.6629 au 
 T_jup = 3.200 
[ show covariance matrix ]

Ephemeris | Orbit Diagram | Orbital Elements | Mission Design | Physical Parameters | Discovery Circumstances | Close-Approach Data ]

Physical Parameter Table
Parameter Symbol Value Units Sigma Reference Notes
absolute magnitude H 14.4   n/a MPO359244  
diameter diameter 6.311 km 0.089 urn:nasa:pds:neowise_diameters_albedos::2.0[mainbelt] (http://adsabs.harvard.edu/abs/2011ApJ...741...68M)  
geometric albedo albedo 0.102   0.006 urn:nasa:pds:neowise_diameters_albedos::2.0[mainbelt] (http://adsabs.harvard.edu/abs/2011ApJ...741...68M)  

71588 (2000 DK68)          Discovered 2000-Feb-29 by LINEAR at Socorro
Reference: 20031109/Numbers.arcLast Updated: 2004-04-19

[ show close-approach data ]
Alternate Designations
 2000 DK68 = 1994 AW15 
Ephemeris | Orbit Diagram | Orbital Elements | Mission Design | Physical Parameters | Discovery Circumstances | Close-Approach Data ]
ABOUT SSD CREDITS/AWARDS PRIVACY/COPYRIGHT GLOSSARY LINKS
FirstGov 2019-Oct-20 12:52 UT
(server date/time)  
NASA Home Page
Site Manager:   Ryan S. Park
Webmaster  Alan B. Chamberlin